This is the latest recevied weather packets stored in our database for station/object DC4AT. If no packets are shown the sender has not sent any weather packets the latest 10 day(s).
| Time | Temp. | Humidity | Pressure | Rain* | Wind** | Luminosity | Snow |
|---|---|---|---|---|---|---|---|
| 1788514632 | 20.56° C | 83% | 1010.9 hPa | 0 mm | - | 74 W/m² | - |
| 1788514032 | 20.56° C | 83% | 1011 hPa | 0 mm | - | 81 W/m² | - |
| 1788513432 | 20.56° C | 83% | 1011.1 hPa | 0 mm | - | 67 W/m² | - |
| 1788512832 | 20.56° C | 83% | 1011.3 hPa | 0 mm | - | 76 W/m² | - |
| 1788512233 | 20° C | 84% | 1011.4 hPa | 0 mm | - | 63 W/m² | - |
| 1788511632 | 20° C | 84% | 1011.6 hPa | 0 mm | - | 53 W/m² | - |
| 1788511032 | 20° C | 84% | 1011.4 hPa | 0 mm | - | 44 W/m² | - |
| 1788510433 | 20° C | 84% | 1011.6 hPa | 0 mm | - | 30 W/m² | - |
| 1788509833 | 20° C | 84% | 1011.7 hPa | 0 mm | - | 26 W/m² | - |
| 1788509233 | 20° C | 84% | 1011.8 hPa | 0 mm | - | 28 W/m² | - |
| 1788508633 | 20° C | 84% | 1012 hPa | 0 mm | - | 35 W/m² | - |
| 1788508033 | 20° C | 84% | 1011.9 hPa | 0 mm | - | 42 W/m² | - |
| 1788507433 | 20° C | 84% | 1012 hPa | 0 mm | - | 49 W/m² | - |
| 1788506833 | 20° C | 84% | 1012 hPa | 0 mm | - | 93 W/m² | - |
| 1788506233 | 19.44° C | 85% | 1012 hPa | 0 mm | - | 225 W/m² | - |
| 1788505633 | 19.44° C | 85% | 1012.1 hPa | 0 mm | - | 93 W/m² | - |
| 1788505033 | 19.44° C | 86% | 1012.4 hPa | 0 mm | - | 76 W/m² | - |
| 1788504433 | 18.89° C | 86% | 1012.5 hPa | 0 mm | - | 62 W/m² | - |
| 1788503833 | 18.89° C | 86% | 1012.6 hPa | 0 mm | - | 74 W/m² | - |
| 1788503233 | 18.89° C | 86% | 1012.8 hPa | 0 mm | - | 28 W/m² | - |
| 1788502633 | 18.89° C | 86% | 1012.8 hPa | 0 mm | - | 25 W/m² | - |
| 1788502033 | 18.89° C | 86% | 1012.8 hPa | 0 mm | - | 16 W/m² | - |
| 1788501433 | 18.33° C | 86% | 1012.9 hPa | 0 mm | - | 28 W/m² | - |
| 1788500833 | 18.33° C | 86% | 1013 hPa | 0 mm | - | 25 W/m² | - |
| 1788500233 | 18.33° C | 86% | 1013.2 hPa | 0 mm | - | 40 W/m² | - |
* Rain latest hour (hover to see other rain measurements)
** Current wind speed in m/s (hover to see current wind gust speed)